TVF7604 LFPO-DAAG

Flight info

Callsign TVF7604
Flight time 1h 50m
Altitude 35000
Route ERIXU DCT ETAMO DCT ADEKA DCT MOKDI DCT MEN DCT BADAM DCT KANIG DCT KENAS DCT POS DCT TALEN DCT XESPA DCT GENIO DCT BUYAH UA27 ALR
Aircraft B738/M-SDE2E3FGHIRWXY/LB1

Departure

Time 2026-04-30 20:46
Airport Paris-Orly Airport (LFPO)

Arrival

Time 2026-04-30 22:37
Airport Houari Boumediene Airport (DAAG)
Time Latitude Longitude Altitude Speed Heading
2026-04-30 20:22 48.72592 2.36172 266 ft 0 kts 339°
2026-04-30 20:36 48.72580 2.36179 299 ft 4 kts 338°
2026-04-30 20:36 48.72532 2.36216 297 ft 4 kts 321°
2026-04-30 20:37 48.72515 2.36244 298 ft 4 kts 288°
2026-04-30 20:37 48.72513 2.36263 299 ft 0 kts 255°
2026-04-30 20:41 48.72512 2.36258 300 ft 2 kts 255°
2026-04-30 20:41 48.72504 2.36214 298 ft 7 kts 255°
2026-04-30 20:42 48.72485 2.36113 301 ft 13 kts 254°
2026-04-30 20:42 48.72469 2.35956 296 ft 17 kts 274°
2026-04-30 20:42 48.72455 2.35647 300 ft 12 kts 244°
2026-04-30 20:43 48.72384 2.35630 300 ft 11 kts 163°
2026-04-30 20:43 48.72309 2.35625 296 ft 11 kts 198°
2026-04-30 20:43 48.72235 2.35601 296 ft 11 kts 175°
2026-04-30 20:44 48.72094 2.35659 301 ft 10 kts 154°
2026-04-30 20:44 48.72053 2.35703 296 ft 4 kts 135°
2026-04-30 20:44 48.72009 2.35803 300 ft 12 kts 118°
2026-04-30 20:45 48.71976 2.36048 300 ft 12 kts 75°
2026-04-30 20:45 48.72032 2.36347 301 ft 62 kts 74°
2026-04-30 20:45 48.72209 2.37309 299 ft 126 kts 74°
2026-04-30 20:46 48.73144 2.42369 2016 ft 170 kts 80°
2026-04-30 20:46 48.73477 2.44180 2580 ft 193 kts 80°
2026-04-30 20:47 48.74146 2.48612 3136 ft 230 kts 92°
2026-04-30 20:47 48.74192 2.51152 3419 ft 254 kts 91°
2026-04-30 20:48 48.74203 2.56688 4737 ft 271 kts 107°
2026-04-30 20:48 48.73292 2.59159 5389 ft 271 kts 138°
2026-04-30 20:48 48.71711 2.60638 6245 ft 268 kts 163°
2026-04-30 20:48 48.69894 2.61258 7001 ft 270 kts 171°
2026-04-30 20:49 48.68023 2.61744 7708 ft 274 kts 171°
2026-04-30 20:49 48.66137 2.62211 8503 ft 277 kts 175°
2026-04-30 20:49 48.64224 2.61825 9193 ft 282 kts 203°
2026-04-30 20:50 48.61275 2.57841 10552 ft 299 kts 228°
2026-04-30 20:50 48.59915 2.55304 10727 ft 322 kts 229°
2026-04-30 20:50 48.58462 2.52573 10893 ft 344 kts 230°
2026-04-30 20:50 48.56904 2.49680 11047 ft 365 kts 229°
2026-04-30 20:51 48.55254 2.46663 11388 ft 378 kts 228°
2026-04-30 20:51 48.51714 2.40723 12588 ft 383 kts 213°
2026-04-30 20:51 48.49456 2.38696 13216 ft 384 kts 207°
2026-04-30 20:52 48.47084 2.36698 13842 ft 388 kts 207°
2026-04-30 20:52 48.44725 2.34678 14377 ft 392 kts 207°
2026-04-30 20:52 48.39974 2.30527 15537 ft 398 kts 208°
2026-04-30 20:53 48.37613 2.28446 16122 ft 400 kts 208°
2026-04-30 20:53 48.35203 2.26322 16671 ft 403 kts 208°
2026-04-30 20:53 48.32739 2.24156 17194 ft 407 kts 208°
2026-04-30 20:54 48.27502 2.21396 18196 ft 405 kts 178°
2026-04-30 20:54 48.24714 2.21836 18724 ft 403 kts 168°
2026-04-30 20:54 48.21945 2.22567 19205 ft 405 kts 168°
2026-04-30 20:55 48.16345 2.24027 20115 ft 411 kts 168°
2026-04-30 20:55 48.13513 2.24726 20592 ft 413 kts 168°
2026-04-30 20:55 48.10668 2.25414 21051 ft 415 kts 169°
2026-04-30 20:56 48.04927 2.26793 21930 ft 420 kts 169°
2026-04-30 20:56 48.02032 2.27489 22361 ft 422 kts 169°
2026-04-30 20:56 47.96194 2.28816 23192 ft 427 kts 172°
2026-04-30 20:57 47.93213 2.29077 23602 ft 431 kts 176°
2026-04-30 20:57 47.90209 2.29161 23956 ft 433 kts 177°
2026-04-30 20:57 47.87190 2.29199 24275 ft 435 kts 177°
2026-04-30 20:58 47.81111 2.29327 24902 ft 439 kts 176°
2026-04-30 20:58 47.78050 2.29435 25209 ft 441 kts 176°
2026-04-30 20:58 47.74970 2.29563 25463 ft 444 kts 176°
2026-04-30 20:58 47.71872 2.29704 25728 ft 447 kts 176°
2026-04-30 20:59 47.65635 2.30001 26324 ft 450 kts 176°
2026-04-30 20:59 47.62498 2.30151 26593 ft 452 kts 176°
2026-04-30 21:00 47.56219 2.30450 27112 ft 456 kts 176°
2026-04-30 21:00 47.49824 2.30751 27528 ft 462 kts 176°
2026-04-30 21:01 47.43390 2.31052 28215 ft 462 kts 176°
2026-04-30 21:01 47.40183 2.31201 28607 ft 460 kts 177°
2026-04-30 21:01 47.33785 2.31499 29301 ft 460 kts 177°
2026-04-30 21:02 47.30591 2.31648 29673 ft 459 kts 177°
2026-04-30 21:02 47.27406 2.31796 30066 ft 457 kts 177°
2026-04-30 21:02 47.24230 2.31944 30396 ft 457 kts 177°
2026-04-30 21:02 47.21054 2.32092 30690 ft 456 kts 177°
2026-04-30 21:03 47.17887 2.32239 31010 ft 455 kts 177°
2026-04-30 21:03 47.14729 2.32385 31349 ft 453 kts 176°
2026-04-30 21:03 47.11591 2.32529 31765 ft 449 kts 176°
2026-04-30 21:03 47.08473 2.32673 32084 ft 448 kts 176°
2026-04-30 21:04 47.05358 2.32818 32318 ft 448 kts 176°
2026-04-30 21:04 47.02238 2.32962 32560 ft 449 kts 176°
2026-04-30 21:04 46.96013 2.33249 33168 ft 446 kts 176°
2026-04-30 21:05 46.92916 2.33391 33470 ft 445 kts 176°
2026-04-30 21:05 46.89826 2.33533 33764 ft 444 kts 176°
2026-04-30 21:05 46.86756 2.33873 34000 ft 442 kts 168°
2026-04-30 21:05 46.83786 2.34971 34221 ft 440 kts 160°
2026-04-30 21:06 46.80963 2.36683 34412 ft 439 kts 152°
2026-04-30 21:06 46.78352 2.38988 34570 ft 439 kts 146°
2026-04-30 21:06 46.75802 2.41451 34727 ft 440 kts 146°
2026-04-30 21:06 46.73254 2.43932 34889 ft 440 kts 146°
2026-04-30 21:07 46.70703 2.46409 35053 ft 441 kts 146°
2026-04-30 21:07 46.68141 2.48878 35159 ft 443 kts 146°
2026-04-30 21:07 46.62983 2.53800 35169 ft 443 kts 147°
2026-04-30 21:08 46.58708 2.57850 35174 ft 441 kts 147°
2026-04-30 21:08 46.52745 2.63479 35180 ft 439 kts 147°
2026-04-30 21:09 46.47629 2.68298 35181 ft 438 kts 147°
2026-04-30 21:09 46.42517 2.73103 35184 ft 438 kts 147°
2026-04-30 21:10 46.38230 2.77125 35183 ft 438 kts 147°
2026-04-30 21:10 46.33135 2.81895 35179 ft 439 kts 147°
2026-04-30 21:11 46.27994 2.86697 35189 ft 441 kts 147°
2026-04-30 21:11 46.22829 2.91510 35190 ft 442 kts 147°
2026-04-30 21:12 46.17644 2.96331 35185 ft 444 kts 147°
2026-04-30 21:12 46.12440 3.01160 35190 ft 446 kts 148°
2026-04-30 21:13 46.07212 3.06000 35182 ft 447 kts 148°
2026-04-30 21:13 46.01969 3.10844 35190 ft 449 kts 148°
2026-04-30 21:14 45.96651 3.15555 35178 ft 449 kts 156°
2026-04-30 21:14 45.90670 3.17961 35180 ft 448 kts 175°
2026-04-30 21:15 45.84448 3.18020 35183 ft 448 kts 181°
2026-04-30 21:15 45.78212 3.17836 35186 ft 448 kts 181°
2026-04-30 21:16 45.71974 3.17703 35175 ft 449 kts 182°
2026-04-30 21:16 45.65725 3.17610 35200 ft 449 kts 182°
2026-04-30 21:17 45.59464 3.17529 35202 ft 450 kts 182°
2026-04-30 21:17 45.53194 3.17449 35207 ft 451 kts 182°
2026-04-30 21:18 45.46918 3.17367 35210 ft 451 kts 182°
2026-04-30 21:18 45.40675 3.17285 35214 ft 452 kts 182°
2026-04-30 21:19 45.34342 3.17202 35217 ft 452 kts 182°
2026-04-30 21:19 45.28086 3.17120 35218 ft 453 kts 182°
2026-04-30 21:20 45.21778 3.17038 35223 ft 453 kts 182°
2026-04-30 21:20 45.15424 3.16956 35223 ft 454 kts 182°
2026-04-30 21:21 45.09106 3.16874 35225 ft 454 kts 183°
2026-04-30 21:22 44.99640 3.16751 35228 ft 454 kts 183°
2026-04-30 21:23 44.87064 3.16579 35235 ft 453 kts 184°
2026-04-30 21:23 44.77612 3.16441 35239 ft 453 kts 184°
2026-04-30 21:24 44.71305 3.16350 35237 ft 453 kts 184°
2026-04-30 21:24 44.65006 3.16260 35237 ft 453 kts 184°
2026-04-30 21:25 44.55555 3.16232 35232 ft 453 kts 182°
2026-04-30 21:26 44.46087 3.16443 35241 ft 454 kts 182°
2026-04-30 21:27 44.36596 3.16622 35231 ft 455 kts 183°
2026-04-30 21:27 44.30255 3.16730 35240 ft 456 kts 183°
2026-04-30 21:28 44.20724 3.16892 35249 ft 457 kts 183°
2026-04-30 21:29 44.11159 3.17056 35243 ft 459 kts 184°
2026-04-30 21:30 43.95330 3.15608 35233 ft 456 kts 191°
2026-04-30 21:31 43.79542 3.13619 35233 ft 456 kts 190°
2026-04-30 21:32 43.70109 3.12503 35230 ft 456 kts 190°
2026-04-30 21:32 43.63746 3.11750 35228 ft 456 kts 190°
2026-04-30 21:33 43.54315 3.10636 35202 ft 455 kts 191°
2026-04-30 21:34 43.48016 3.09893 35211 ft 454 kts 190°
2026-04-30 21:34 43.38572 3.08782 35201 ft 454 kts 190°
2026-04-30 21:35 43.32280 3.08043 35221 ft 454 kts 190°
2026-04-30 21:35 43.25982 3.07306 35211 ft 455 kts 190°
2026-04-30 21:36 43.19677 3.06569 35213 ft 455 kts 190°
2026-04-30 21:37 43.07047 3.05098 35209 ft 456 kts 190°
2026-04-30 21:37 43.00727 3.04364 35197 ft 456 kts 190°
2026-04-30 21:38 42.94405 3.03632 35184 ft 455 kts 190°
2026-04-30 21:38 42.88100 3.02904 35203 ft 454 kts 190°
2026-04-30 21:39 42.81803 3.02177 35209 ft 454 kts 190°
2026-04-30 21:39 42.75514 3.01453 35210 ft 453 kts 190°
2026-04-30 21:40 42.69233 3.00731 35211 ft 453 kts 190°
2026-04-30 21:40 42.62959 3.00011 35207 ft 452 kts 190°
2026-04-30 21:41 42.56732 2.99298 35193 ft 452 kts 189°
2026-04-30 21:41 42.50471 2.98582 35200 ft 451 kts 190°
2026-04-30 21:42 42.44163 2.98398 35204 ft 456 kts 182°
2026-04-30 21:42 42.37817 2.98984 35196 ft 457 kts 180°
2026-04-30 21:43 42.31473 2.99610 35178 ft 457 kts 181°
2026-04-30 21:43 42.25129 3.00174 35182 ft 456 kts 181°
2026-04-30 21:44 42.18790 3.00699 35180 ft 456 kts 181°
2026-04-30 21:44 42.12451 3.01212 35168 ft 456 kts 181°
2026-04-30 21:45 42.06117 3.01724 35173 ft 456 kts 181°
2026-04-30 21:45 41.99783 3.02237 35173 ft 456 kts 181°
2026-04-30 21:46 41.93447 3.02750 35153 ft 456 kts 180°
2026-04-30 21:46 41.87110 3.03262 35154 ft 456 kts 180°
2026-04-30 21:47 41.80780 3.03773 35163 ft 456 kts 180°
2026-04-30 21:47 41.74447 3.04283 35163 ft 456 kts 180°
2026-04-30 21:48 41.68116 3.04791 35163 ft 455 kts 180°
2026-04-30 21:48 41.61789 3.05298 35159 ft 455 kts 180°
2026-04-30 21:49 41.55471 3.05804 35162 ft 455 kts 181°
2026-04-30 21:49 41.49150 3.06308 35153 ft 455 kts 180°
2026-04-30 21:50 41.42842 3.06811 35158 ft 454 kts 180°
2026-04-30 21:50 41.36528 3.07314 35155 ft 454 kts 180°
2026-04-30 21:51 41.30219 3.07814 35147 ft 454 kts 180°
2026-04-30 21:51 41.23952 3.08311 35153 ft 454 kts 180°
2026-04-30 21:52 41.17647 3.08810 35155 ft 454 kts 180°
2026-04-30 21:52 41.11345 3.09307 35148 ft 453 kts 180°
2026-04-30 21:53 41.05051 3.09803 35155 ft 453 kts 181°
2026-04-30 21:53 40.98769 3.10297 35145 ft 452 kts 181°
2026-04-30 21:54 40.92496 3.10790 35141 ft 451 kts 181°
2026-04-30 21:54 40.86238 3.11280 35133 ft 450 kts 181°
2026-04-30 21:55 40.79990 3.11768 35143 ft 449 kts 181°
2026-04-30 21:55 40.73758 3.12254 35142 ft 448 kts 181°
2026-04-30 21:56 40.67530 3.12739 35137 ft 448 kts 181°
2026-04-30 21:56 40.61306 3.13223 35141 ft 448 kts 181°
2026-04-30 21:57 40.55088 3.13706 35132 ft 448 kts 181°
2026-04-30 21:57 40.49916 3.14099 35124 ft 447 kts 182°
2026-04-30 21:58 40.43718 3.13979 35138 ft 445 kts 187°
2026-04-30 21:58 40.37537 3.13598 35130 ft 445 kts 187°
2026-04-30 21:59 40.31353 3.13256 35124 ft 445 kts 187°
2026-04-30 22:00 40.22059 3.12823 35122 ft 446 kts 187°
2026-04-30 22:00 40.12760 3.12406 35123 ft 446 kts 187°
2026-04-30 22:01 40.06558 3.12126 35120 ft 446 kts 187°
2026-04-30 22:01 40.00351 3.11845 35119 ft 447 kts 187°
2026-04-30 22:02 39.94137 3.11565 35113 ft 447 kts 188°
2026-04-30 22:02 39.87903 3.11467 35117 ft 450 kts 185°
2026-04-30 22:03 39.81641 3.11649 35121 ft 450 kts 185°
2026-04-30 22:03 39.75378 3.11831 35110 ft 450 kts 185°
2026-04-30 22:04 39.69122 3.11974 35111 ft 449 kts 185°
2026-04-30 22:05 39.59768 3.12159 35118 ft 447 kts 185°
2026-04-30 22:05 39.53555 3.12281 35103 ft 446 kts 185°
2026-04-30 22:06 39.47408 3.12402 35111 ft 444 kts 185°
2026-04-30 22:06 39.38164 3.12584 35115 ft 442 kts 185°
2026-04-30 22:07 39.32014 3.12705 35111 ft 442 kts 185°
2026-04-30 22:07 39.25881 3.12825 35107 ft 440 kts 184°
2026-04-30 22:08 39.19758 3.12945 35112 ft 440 kts 184°
2026-04-30 22:08 39.13629 3.13064 35111 ft 441 kts 184°
2026-04-30 22:09 39.07481 3.13188 35101 ft 442 kts 184°
2026-04-30 22:09 39.01329 3.13321 35112 ft 442 kts 184°
2026-04-30 22:10 38.95180 3.13453 35108 ft 442 kts 184°
2026-04-30 22:10 38.89034 3.13583 35108 ft 441 kts 184°
2026-04-30 22:11 38.79838 3.13777 35102 ft 440 kts 184°
2026-04-30 22:12 38.73728 3.13906 35105 ft 439 kts 184°
2026-04-30 22:12 38.67626 3.14034 35105 ft 438 kts 184°
2026-04-30 22:13 38.61538 3.14162 35105 ft 437 kts 184°
2026-04-30 22:13 38.55499 3.14285 35107 ft 437 kts 184°
2026-04-30 22:13 38.52452 3.14345 34801 ft 442 kts 184°
2026-04-30 22:14 38.49372 3.14404 34265 ft 442 kts 184°
2026-04-30 22:14 38.46298 3.14465 33559 ft 442 kts 184°
2026-04-30 22:14 38.43221 3.14526 32863 ft 442 kts 184°
2026-04-30 22:14 38.40147 3.14587 32168 ft 442 kts 183°
2026-04-30 22:15 38.37067 3.14648 31461 ft 443 kts 183°
2026-04-30 22:15 38.33975 3.14709 30747 ft 445 kts 183°
2026-04-30 22:15 38.30876 3.14782 30133 ft 445 kts 181°
2026-04-30 22:15 38.27795 3.15207 29374 ft 449 kts 172°
2026-04-30 22:16 38.24755 3.16205 28709 ft 449 kts 168°
2026-04-30 22:16 38.21762 3.17285 28083 ft 446 kts 168°
2026-04-30 22:17 38.12900 3.20300 26499 ft 433 kts 169°
2026-04-30 22:17 38.09989 3.21183 26035 ft 427 kts 171°
2026-04-30 22:17 38.04240 3.22775 25036 ft 420 kts 171°
2026-04-30 22:18 38.01394 3.23548 24543 ft 417 kts 171°
2026-04-30 22:18 37.95754 3.25095 23495 ft 413 kts 171°
2026-04-30 22:19 37.90188 3.26640 22399 ft 406 kts 171°
2026-04-30 22:19 37.87447 3.27404 21904 ft 402 kts 171°
2026-04-30 22:19 37.82035 3.28913 20924 ft 395 kts 170°
2026-04-30 22:20 37.79366 3.29657 20442 ft 391 kts 170°
2026-04-30 22:20 37.74088 3.31125 19496 ft 386 kts 170°
2026-04-30 22:20 37.71478 3.31850 19027 ft 383 kts 170°
2026-04-30 22:21 37.68882 3.32570 18560 ft 381 kts 169°
2026-04-30 22:21 37.66299 3.33287 18022 ft 379 kts 170°
2026-04-30 22:21 37.63728 3.34000 17487 ft 377 kts 169°
2026-04-30 22:21 37.61171 3.34708 16986 ft 374 kts 169°
2026-04-30 22:22 37.58637 3.35410 16519 ft 371 kts 169°
2026-04-30 22:22 37.56122 3.36106 16055 ft 369 kts 169°
2026-04-30 22:22 37.53628 3.36796 15600 ft 366 kts 169°
2026-04-30 22:22 37.51149 3.37481 15146 ft 364 kts 169°
2026-04-30 22:23 37.48686 3.38161 14699 ft 361 kts 169°
2026-04-30 22:23 37.46267 3.38828 14256 ft 360 kts 169°
2026-04-30 22:23 37.43795 3.39510 13779 ft 358 kts 169°
2026-04-30 22:23 37.41398 3.40170 13289 ft 357 kts 169°
2026-04-30 22:24 37.38981 3.40836 12812 ft 355 kts 169°
2026-04-30 22:24 37.36577 3.41497 12359 ft 353 kts 169°
2026-04-30 22:24 37.34187 3.42155 11904 ft 350 kts 169°
2026-04-30 22:24 37.31813 3.42808 11461 ft 348 kts 169°
2026-04-30 22:25 37.29453 3.43456 11064 ft 345 kts 168°
2026-04-30 22:25 37.27144 3.44091 10923 ft 334 kts 169°
2026-04-30 22:25 37.24901 3.44707 10759 ft 325 kts 169°
2026-04-30 22:25 37.22726 3.45304 10615 ft 316 kts 169°
2026-04-30 22:26 37.18556 3.46446 10348 ft 298 kts 168°
2026-04-30 22:26 37.16557 3.46994 10222 ft 290 kts 170°
2026-04-30 22:26 37.14612 3.47526 10094 ft 282 kts 169°
2026-04-30 22:27 37.12703 3.48048 9828 ft 280 kts 169°
2026-04-30 22:27 37.10800 3.48567 9548 ft 279 kts 169°
2026-04-30 22:27 37.07035 3.49594 8981 ft 275 kts 169°
2026-04-30 22:28 37.03314 3.50610 8416 ft 272 kts 169°
2026-04-30 22:28 37.01467 3.51112 8143 ft 271 kts 169°
2026-04-30 22:29 36.95969 3.52610 7315 ft 268 kts 169°
2026-04-30 22:29 36.94150 3.53104 7038 ft 267 kts 169°
2026-04-30 22:30 36.86926 3.55068 5909 ft 264 kts 168°
2026-04-30 22:31 36.81678 3.55411 5163 ft 247 kts 211°
2026-04-30 22:32 36.79750 3.50064 4311 ft 231 kts 271°
2026-04-30 22:32 36.79913 3.46166 3736 ft 218 kts 272°
2026-04-30 22:33 36.80116 3.40660 2758 ft 209 kts 269°
2026-04-30 22:33 36.78725 3.37668 2291 ft 210 kts 232°
2026-04-30 22:34 36.76372 3.33523 1774 ft 177 kts 232°
2026-04-30 22:35 36.74972 3.31210 1315 ft 161 kts 232°
2026-04-30 22:36 36.72271 3.26775 478 ft 160 kts 234°
2026-04-30 22:36 36.71608 3.25674 236 ft 156 kts 235°
2026-04-30 22:37 36.70328 3.23562 71 ft 15 kts 232°
2026-04-30 22:37 36.70294 3.23501 70 ft 6 kts 252°
2026-04-30 22:37 36.70356 3.23414 73 ft 10 kts 323°
2026-04-30 22:38 36.70476 3.23286 69 ft 11 kts 287°
2026-04-30 22:38 36.70399 3.23125 66 ft 12 kts 232°
2026-04-30 22:39 36.70344 3.23035 61 ft 14 kts 233°
2026-04-30 22:39 36.70122 3.22673 66 ft 20 kts 232°
2026-04-30 22:40 36.69839 3.22205 68 ft 24 kts 233°
2026-04-30 22:41 36.69592 3.21756 66 ft 13 kts 282°
2026-04-30 22:41 36.69740 3.21663 65 ft 12 kts 342°
2026-04-30 22:42 36.69854 3.21382 69 ft 14 kts 251°
2026-04-30 22:43 36.69789 3.21141 65 ft 15 kts 251°
2026-04-30 22:43 36.69707 3.21032 66 ft 8 kts 206°
2026-04-30 22:44 36.69625 3.20940 64 ft 7 kts 240°
2026-04-30 22:45 36.69665 3.20878 67 ft 4 kts 355°
2026-04-30 22:45 36.69702 3.20875 69 ft 0 kts 355°